Time,TemperatureF,DewpointF,PressureIn,WindDirection,WindDirectionDegrees,WindSpeedMPH,WindSpeedGustMPH,Humidity,HourlyPrecipIn,Conditions,Clouds,dailyrainin,SoftwareType,DateUTC
2013-07-29 00:03:00,56.8,53.3,24.10,NE,55,0.0,0.0,88,0.00,,---,0.00,VWS V14.01,2013-07-29 06:03:00,
2013-07-29 00:08:00,56.8,53.3,24.10,NE,55,0.0,0.0,88,0.00,,---,0.00,VWS V14.01,2013-07-29 06:08:00,
2013-07-29 00:14:00,56.7,53.2,24.10,NE,55,0.0,0.0,88,0.00,,---,0.00,VWS V14.01,2013-07-29 06:14:00,
2013-07-29 00:19:00,56.8,53.3,24.10,NE,55,0.0,0.0,88,0.00,,---,0.00,VWS V14.01,2013-07-29 06:19:00,
2013-07-29 00:24:00,57.0,53.8,24.10,NE,55,0.0,0.0,89,0.00,,---,0.00,VWS V14.01,2013-07-29 06:24:00,
2013-07-29 00:29:00,56.8,53.6,24.10,NE,55,0.0,0.0,89,0.00,,---,0.00,VWS V14.01,2013-07-29 06:29:00,
2013-07-29 00:34:00,56.7,53.5,24.10,NE,55,0.0,0.0,89,0.00,,---,0.00,VWS V14.01,2013-07-29 06:34:00,
2013-07-29 00:39:00,56.7,53.5,24.10,NE,55,0.0,0.0,89,0.00,,---,0.00,VWS V14.01,2013-07-29 06:39:00,
2013-07-29 00:44:00,56.7,53.5,24.10,NE,55,0.0,0.0,89,0.00,,---,0.00,VWS V14.01,2013-07-29 06:44:00,
2013-07-29 00:49:00,56.7,53.5,24.10,NE,55,0.0,0.0,89,0.00,,---,0.00,VWS V14.01,2013-07-29 06:49:00,
2013-07-29 00:54:00,56.7,53.5,24.10,ENE,58,0.0,0.0,89,0.00,,---,0.00,VWS V14.01,2013-07-29 06:54:00,
2013-07-29 00:59:00,56.7,53.5,24.10,ENE,58,0.0,0.0,89,0.00,,---,0.00,VWS V14.01,2013-07-29 06:59:00,
2013-07-29 01:05:00,56.3,53.1,24.10,ENE,58,0.0,0.0,89,0.00,,---,0.00,VWS V14.01,2013-07-29 07:05:00,
2013-07-29 01:10:00,56.3,53.1,24.10,ENE,58,0.0,0.0,89,0.00,,---,0.00,VWS V14.01,2013-07-29 07:10:00,
2013-07-29 01:15:00,56.3,53.1,24.10,ENE,58,0.0,0.0,89,0.00,,---,0.00,VWS V14.01,2013-07-29 07:15:00,
2013-07-29 01:21:00,56.1,52.9,24.10,ENE,58,0.0,0.0,89,0.00,,---,0.00,VWS V14.01,2013-07-29 07:21:00,
2013-07-29 01:26:00,56.3,53.1,24.10,ENE,58,0.0,0.0,89,0.00,,---,0.00,VWS V14.01,2013-07-29 07:26:00,
2013-07-29 01:31:00,56.1,52.9,24.10,ENE,58,0.0,0.0,89,0.00,,---,0.00,VWS V14.01,2013-07-29 07:31:00,
2013-07-29 01:36:00,56.1,52.9,24.10,ENE,58,0.0,0.0,89,0.00,,---,0.00,VWS V14.01,2013-07-29 07:36:00,
2013-07-29 01:41:00,56.1,52.9,24.10,ENE,58,0.0,0.0,89,0.00,,---,0.00,VWS V14.01,2013-07-29 07:41:00,
2013-07-29 01:46:00,56.1,53.2,24.07,ENE,58,0.0,0.0,90,0.00,,---,0.00,VWS V14.01,2013-07-29 07:46:00,
2013-07-29 01:52:00,56.1,53.2,24.07,ENE,58,0.0,0.0,90,0.00,,---,0.00,VWS V14.01,2013-07-29 07:52:00,
2013-07-29 01:57:00,55.9,53.0,24.07,ENE,58,0.0,0.0,90,0.00,,---,0.00,VWS V14.01,2013-07-29 07:57:00,
2013-07-29 02:02:00,55.9,53.0,24.10,ENE,58,0.0,0.0,90,0.00,,---,0.00,VWS V14.01,2013-07-29 08:02:00,
2013-07-29 02:08:00,55.8,52.9,24.10,ENE,58,0.0,0.0,90,0.00,,---,0.00,VWS V14.01,2013-07-29 08:08:00,
2013-07-29 02:13:00,55.4,52.5,24.10,ENE,58,0.0,0.0,90,0.00,,---,0.00,VWS V14.01,2013-07-29 08:13:00,
2013-07-29 02:19:00,55.0,52.2,24.10,ENE,58,0.0,0.0,90,0.00,,---,0.00,VWS V14.01,2013-07-29 08:19:00,
2013-07-29 02:24:00,54.9,52.0,24.10,ENE,58,0.0,0.0,90,0.00,,---,0.00,VWS V14.01,2013-07-29 08:24:00,
2013-07-29 02:30:00,54.7,51.8,24.10,ENE,58,0.0,0.0,90,0.00,,---,0.00,VWS V14.01,2013-07-29 08:30:00,
2013-07-29 02:35:00,54.5,51.6,24.10,SW,216,0.0,0.0,90,0.00,,---,0.00,VWS V14.01,2013-07-29 08:35:00,
2013-07-29 02:41:00,54.5,51.6,24.10,SW,216,0.0,0.0,90,0.00,,---,0.00,VWS V14.01,2013-07-29 08:41:00,
2013-07-29 02:46:00,54.5,51.6,24.10,SW,216,0.0,0.0,90,0.00,,---,0.00,VWS V14.01,2013-07-29 08:46:00,
2013-07-29 02:52:00,54.5,51.6,24.10,SSE,162,0.0,0.0,90,0.00,,---,0.00,VWS V14.01,2013-07-29 08:52:00,
2013-07-29 02:57:00,54.7,51.8,24.10,SSE,162,0.0,0.0,90,0.00,,---,0.00,VWS V14.01,2013-07-29 08:57:00,
2013-07-29 03:03:00,54.7,51.8,24.10,SSE,162,0.0,0.0,90,0.00,,---,0.00,VWS V14.01,2013-07-29 09:03:00,
2013-07-29 03:09:00,54.7,52.1,24.10,SSE,162,0.0,0.0,91,0.00,,---,0.00,VWS V14.01,2013-07-29 09:09:00,
2013-07-29 03:15:00,54.7,52.1,24.10,SW,226,0.0,0.0,91,0.00,,---,0.00,VWS V14.01,2013-07-29 09:15:00,
2013-07-29 03:20:00,54.7,52.1,24.10,SW,226,0.0,0.0,91,0.00,,---,0.00,VWS V14.01,2013-07-29 09:20:00,
2013-07-29 03:25:00,54.5,51.9,24.10,SW,226,0.0,0.0,91,0.00,,---,0.00,VWS V14.01,2013-07-29 09:25:00,
2013-07-29 03:30:00,54.5,51.9,24.07,SW,226,0.0,0.0,91,0.00,,---,0.00,VWS V14.01,2013-07-29 09:30:00,
2013-07-29 03:36:00,54.5,51.9,24.07,SW,226,0.0,0.0,91,0.00,,---,0.00,VWS V14.01,2013-07-29 09:36:00,
2013-07-29 03:41:00,54.5,51.9,24.07,SW,226,0.0,0.0,91,0.00,,---,0.00,VWS V14.01,2013-07-29 09:41:00,
2013-07-29 03:47:00,54.7,52.1,24.07,SW,226,0.0,0.0,91,0.00,,---,0.00,VWS V14.01,2013-07-29 09:47:00,
2013-07-29 03:53:00,54.9,52.3,24.07,SW,226,0.0,0.0,91,0.00,,---,0.00,VWS V14.01,2013-07-29 09:53:00,
2013-07-29 03:59:00,54.7,52.1,24.07,SW,226,0.0,0.0,91,0.00,,---,0.00,VWS V14.01,2013-07-29 09:59:00,
2013-07-29 04:05:00,54.5,51.9,24.07,SW,226,0.0,0.0,91,0.00,,---,0.00,VWS V14.01,2013-07-29 10:05:00,
2013-07-29 04:11:00,54.5,51.9,24.07,SW,226,0.0,0.0,91,0.00,,---,0.00,VWS V14.01,2013-07-29 10:11:00,
2013-07-29 04:16:00,54.3,51.8,24.07,SW,226,0.0,0.0,91,0.00,,---,0.00,VWS V14.01,2013-07-29 10:16:00,
2013-07-29 04:22:00,54.1,51.6,24.07,SW,226,0.0,0.0,91,0.00,,---,0.00,VWS V14.01,2013-07-29 10:22:00,
2013-07-29 04:27:00,54.0,51.4,24.07,SW,226,0.0,0.0,91,0.00,,---,0.00,VWS V14.01,2013-07-29 10:27:00,
2013-07-29 04:33:00,53.8,50.9,24.10,SW,226,0.0,0.0,90,0.00,,---,0.00,VWS V14.01,2013-07-29 10:33:00,
2013-07-29 04:40:00,54.0,51.4,24.10,SW,226,0.0,0.0,91,0.00,,---,0.00,VWS V14.01,2013-07-29 10:40:00,
2013-07-29 04:46:00,53.8,51.2,24.10,SW,226,0.0,0.0,91,0.00,,---,0.00,VWS V14.01,2013-07-29 10:46:00,
2013-07-29 04:51:00,53.8,51.2,24.10,SW,226,0.0,0.0,91,0.00,,---,0.00,VWS V14.01,2013-07-29 10:51:00,
2013-07-29 04:58:00,54.0,51.4,24.10,SW,226,0.0,0.0,91,0.00,,---,0.00,VWS V14.01,2013-07-29 10:58:00,
2013-07-29 05:04:00,54.0,51.4,24.10,SW,226,0.0,0.0,91,0.00,,---,0.00,VWS V14.01,2013-07-29 11:04:00,
2013-07-29 05:10:00,54.0,51.4,24.10,SW,226,0.0,0.0,91,0.00,,---,0.00,VWS V14.01,2013-07-29 11:10:00,
2013-07-29 05:16:00,54.0,51.4,24.10,SW,226,0.0,0.0,91,0.00,,---,0.00,VWS V14.01,2013-07-29 11:16:00,
2013-07-29 05:22:00,54.0,51.4,24.10,SW,226,0.0,0.0,91,0.00,,---,0.00,VWS V14.01,2013-07-29 11:22:00,
2013-07-29 05:27:00,53.8,51.2,24.10,SW,226,0.0,0.0,91,0.00,,---,0.00,VWS V14.01,2013-07-29 11:27:00,
2013-07-29 05:32:00,54.0,51.4,24.10,SW,226,0.0,0.0,91,0.00,,---,0.00,VWS V14.01,2013-07-29 11:32:00,
2013-07-29 05:37:00,54.1,51.6,24.10,SW,226,0.0,0.0,91,0.00,,---,0.00,VWS V14.01,2013-07-29 11:37:00,
2013-07-29 05:43:00,54.3,51.8,24.10,SW,226,0.0,0.0,91,0.00,,---,0.00,VWS V14.01,2013-07-29 11:43:00,
2013-07-29 05:48:00,54.3,51.8,24.10,SW,226,0.0,0.0,91,0.00,,---,0.00,VWS V14.01,2013-07-29 11:48:00,
2013-07-29 05:55:00,54.5,51.9,24.10,SW,226,0.0,0.0,91,0.00,,---,0.00,VWS V14.01,2013-07-29 11:55:00,
2013-07-29 06:02:00,54.5,51.9,24.10,SW,226,0.0,0.0,91,0.00,,---,0.00,VWS V14.01,2013-07-29 12:02:00,
2013-07-29 06:07:00,54.5,51.9,24.10,SW,226,0.0,0.0,91,0.00,,---,0.00,VWS V14.01,2013-07-29 12:07:00,
2013-07-29 06:13:00,54.3,51.8,24.10,SW,226,0.0,0.0,91,0.00,,---,0.00,VWS V14.01,2013-07-29 12:13:00,
2013-07-29 06:18:00,54.5,51.9,24.10,SW,226,0.0,0.0,91,0.00,,---,0.00,VWS V14.01,2013-07-29 12:18:00,
2013-07-29 06:23:00,54.5,51.9,24.10,SW,226,0.0,0.0,91,0.00,,---,0.00,VWS V14.01,2013-07-29 12:23:00,
2013-07-29 06:29:00,54.7,52.1,24.10,SW,226,0.0,0.0,91,0.00,,---,0.00,VWS V14.01,2013-07-29 12:29:00,
2013-07-29 06:35:00,54.5,51.9,24.10,SW,226,0.0,0.0,91,0.00,,---,0.00,VWS V14.01,2013-07-29 12:35:00,
2013-07-29 06:40:00,54.5,51.9,24.10,SW,226,0.0,0.0,91,0.00,,---,0.00,VWS V14.01,2013-07-29 12:40:00,
2013-07-29 06:45:00,54.3,51.8,24.13,SW,226,0.0,0.0,91,0.00,,---,0.00,VWS V14.01,2013-07-29 12:45:00,
2013-07-29 06:50:00,55.9,53.7,24.13,North,2,7.6,8.1,92,0.00,,---,0.00,VWS V14.01,2013-07-29 12:50:00,
2013-07-29 06:55:00,57.0,54.7,24.13,NE,47,5.4,7.6,92,0.00,,---,0.00,VWS V14.01,2013-07-29 12:55:00,
2013-07-29 07:01:00,57.6,55.3,24.13,NE,55,3.6,6.3,92,0.00,,---,0.00,VWS V14.01,2013-07-29 13:01:00,
2013-07-29 07:06:00,57.6,55.0,24.13,NNE,28,0.0,3.1,91,0.00,,---,0.00,VWS V14.01,2013-07-29 13:06:00,
2013-07-29 07:11:00,57.6,55.0,24.13,ESE,106,4.0,5.4,91,0.00,,---,0.00,VWS V14.01,2013-07-29 13:11:00,
2013-07-29 07:17:00,57.4,54.5,24.13,East,93,0.0,2.2,90,0.00,,---,0.00,VWS V14.01,2013-07-29 13:17:00,
2013-07-29 07:23:00,57.4,54.5,24.13,ENE,74,2.2,5.4,90,0.00,,---,0.00,VWS V14.01,2013-07-29 13:23:00,
2013-07-29 07:29:00,57.2,54.3,24.13,NNE,31,0.0,3.1,90,0.00,,---,0.00,VWS V14.01,2013-07-29 13:29:00,
2013-07-29 07:34:00,57.2,54.3,24.13,NE,56,3.1,6.3,90,0.00,,---,0.00,VWS V14.01,2013-07-29 13:34:00,
2013-07-29 07:39:00,57.2,54.3,24.13,ENE,63,5.8,5.8,90,0.00,,---,0.00,VWS V14.01,2013-07-29 13:39:00,
2013-07-29 07:45:00,57.4,54.5,24.13,ENE,74,5.8,5.8,90,0.00,,---,0.00,VWS V14.01,2013-07-29 13:45:00,
2013-07-29 07:52:00,57.7,54.8,24.13,North,7,4.0,4.0,90,0.00,,---,0.00,VWS V14.01,2013-07-29 13:52:00,
2013-07-29 07:57:00,57.7,54.8,24.13,NNW,348,4.9,7.6,90,0.00,,---,0.00,VWS V14.01,2013-07-29 13:57:00,
2013-07-29 08:03:00,57.9,55.0,24.13,North,9,4.0,8.3,90,0.00,,---,0.00,VWS V14.01,2013-07-29 14:03:00,
2013-07-29 08:08:00,57.9,55.0,24.13,ESE,121,2.7,5.8,90,0.00,,---,0.00,VWS V14.01,2013-07-29 14:08:00,
2013-07-29 08:13:00,58.1,55.2,24.13,NNW,341,0.0,3.1,90,0.00,,---,0.00,VWS V14.01,2013-07-29 14:13:00,
2013-07-29 08:19:00,58.3,55.4,24.13,North,353,5.8,5.8,90,0.00,,---,0.00,VWS V14.01,2013-07-29 14:19:00,
2013-07-29 08:24:00,58.1,55.2,24.13,NNE,30,4.9,6.3,90,0.00,,---,0.00,VWS V14.01,2013-07-29 14:24:00,
2013-07-29 08:30:00,58.3,55.4,24.13,North,3,4.0,5.4,90,0.00,,---,0.00,VWS V14.01,2013-07-29 14:30:00,
2013-07-29 08:36:00,58.5,55.5,24.13,NNE,14,4.0,4.0,90,0.00,,---,0.00,VWS V14.01,2013-07-29 14:36:00,
2013-07-29 08:42:00,59.0,56.1,24.13,ENE,72,5.4,5.4,90,0.00,,---,0.00,VWS V14.01,2013-07-29 14:42:00,
2013-07-29 08:43:00,59.0,56.1,24.13,ENE,72,5.4,5.4,90,0.00,,---,0.00,VWS V14.01,2013-07-29 14:43:00,
2013-07-29 08:44:00,59.0,56.1,24.13,NE,42,8.1,8.1,90,0.00,,---,0.00,VWS V14.01,2013-07-29 14:44:00,
2013-07-29 08:45:00,59.0,56.1,24.13,North,8,4.9,8.1,90,0.00,,---,0.00,VWS V14.01,2013-07-29 14:45:00,
2013-07-29 08:46:00,59.2,56.2,24.13,NE,35,4.9,6.3,90,0.00,,---,0.00,VWS V14.01,2013-07-29 14:46:00,
2013-07-29 08:47:00,59.2,56.2,24.13,NE,39,4.9,6.3,90,0.00,,---,0.00,VWS V14.01,2013-07-29 14:47:00,
2013-07-29 08:49:00,59.5,56.6,24.13,NNE,13,4.9,4.9,90,0.00,,---,0.00,VWS V14.01,2013-07-29 14:49:00,
2013-07-29 08:50:00,59.5,56.6,24.13,NE,55,7.2,7.2,90,0.00,,---,0.00,VWS V14.01,2013-07-29 14:50:00,
2013-07-29 08:55:00,59.9,57.0,24.13,ENE,61,0.0,2.2,90,0.00,,---,0.00,VWS V14.01,2013-07-29 14:55:00,
2013-07-29 09:01:00,60.6,57.7,24.13,ENE,71,4.0,4.0,90,0.00,,---,0.00,VWS V14.01,2013-07-29 15:01:00,
2013-07-29 09:03:00,61.0,58.0,24.13,NNW,348,3.1,3.1,90,0.00,,---,0.00,VWS V14.01,2013-07-29 15:03:00,
2013-07-29 09:04:00,61.0,58.0,24.13,NNE,12,3.1,4.0,90,0.00,,---,0.00,VWS V14.01,2013-07-29 15:04:00,
2013-07-29 09:05:00,61.0,58.0,24.13,ENE,70,4.0,5.8,90,0.00,,---,0.00,VWS V14.01,2013-07-29 15:05:00,
2013-07-29 09:06:00,61.2,58.2,24.13,North,6,3.1,4.0,90,0.00,,---,0.00,VWS V14.01,2013-07-29 15:06:00,
2013-07-29 09:07:00,61.2,58.2,24.13,North,6,3.1,4.0,90,0.00,,---,0.00,VWS V14.01,2013-07-29 15:07:00,
2013-07-29 09:10:00,61.7,58.4,24.13,NNE,29,5.4,5.4,89,0.00,,---,0.00,VWS V14.01,2013-07-29 15:10:00,
2013-07-29 09:11:00,61.7,58.4,24.13,NNE,26,3.6,5.4,89,0.00,,---,0.00,VWS V14.01,2013-07-29 15:11:00,
2013-07-29 09:12:00,61.7,58.1,24.13,NNE,30,5.8,5.8,88,0.00,,---,0.00,VWS V14.01,2013-07-29 15:12:00,
2013-07-29 09:18:00,62.2,58.3,24.13,ENE,61,8.1,8.1,87,0.00,,---,0.00,VWS V14.01,2013-07-29 15:18:00,
2013-07-29 09:23:00,62.4,57.5,24.13,ENE,78,8.7,8.7,84,0.00,,---,0.00,VWS V14.01,2013-07-29 15:23:00,
2013-07-29 09:29:00,63.0,57.7,24.13,East,91,2.7,3.1,83,0.00,,---,0.00,VWS V14.01,2013-07-29 15:29:00,
2013-07-29 09:34:00,63.3,57.7,24.13,NE,43,4.0,6.7,82,0.00,,---,0.00,VWS V14.01,2013-07-29 15:34:00,
2013-07-29 09:40:00,63.9,56.2,24.13,NE,36,5.4,5.4,76,0.00,,---,0.00,VWS V14.01,2013-07-29 15:40:00,
2013-07-29 09:43:00,59.0,56.1,24.13,ENE,72,5.4,5.4,90,0.00,,---,0.00,VWS V14.01,2013-07-29 15:43:00,
2013-07-29 09:44:00,59.0,56.1,24.13,NE,42,8.1,8.1,90,0.00,,---,0.00,VWS V14.01,2013-07-29 15:44:00,
2013-07-29 09:45:00,63.7,54.9,24.13,ENE,64,2.7,5.4,73,0.00,,---,0.00,VWS V14.01,2013-07-29 15:45:00,
2013-07-29 09:46:00,59.2,56.2,24.13,NE,35,4.9,6.3,90,0.00,,---,0.00,VWS V14.01,2013-07-29 15:46:00,
2013-07-29 09:47:00,59.2,56.2,24.13,NE,39,4.9,6.3,90,0.00,,---,0.00,VWS V14.01,2013-07-29 15:47:00,
2013-07-29 09:49:00,59.5,56.6,24.13,NNE,13,4.9,4.9,90,0.00,,---,0.00,VWS V14.01,2013-07-29 15:49:00,
2013-07-29 09:50:00,59.5,56.6,24.13,NE,55,7.2,7.2,90,0.00,,---,0.00,VWS V14.01,2013-07-29 15:50:00,
2013-07-29 09:52:00,63.5,54.3,24.13,East,95,2.7,4.0,72,0.00,,---,0.00,VWS V14.01,2013-07-29 15:52:00,
2013-07-29 09:57:00,63.7,54.9,24.13,NNE,31,4.9,5.8,73,0.00,,---,0.00,VWS V14.01,2013-07-29 15:57:00,
2013-07-29 10:02:00,64.2,55.4,24.13,NE,41,3.6,4.9,73,0.00,,---,0.00,VWS V14.01,2013-07-29 16:02:00,
2013-07-29 10:03:00,61.0,58.0,24.13,NNW,348,3.1,3.1,90,0.00,,---,0.00,VWS V14.01,2013-07-29 16:03:00,
2013-07-29 10:04:00,61.0,58.0,24.13,NNE,12,3.1,4.0,90,0.00,,---,0.00,VWS V14.01,2013-07-29 16:04:00,
2013-07-29 10:05:00,61.0,58.0,24.13,ENE,70,4.0,5.8,90,0.00,,---,0.00,VWS V14.01,2013-07-29 16:05:00,
2013-07-29 10:06:00,61.2,58.2,24.13,North,6,3.1,4.0,90,0.00,,---,0.00,VWS V14.01,2013-07-29 16:06:00,
2013-07-29 10:08:00,64.4,54.4,24.13,ENE,69,6.3,6.3,70,0.00,,---,0.00,VWS V14.01,2013-07-29 16:08:00,
2013-07-29 10:10:00,61.7,58.4,24.13,NNE,29,5.4,5.4,89,0.00,,---,0.00,VWS V14.01,2013-07-29 16:10:00,
2013-07-29 10:11:00,61.7,58.4,24.13,NNE,26,3.6,5.4,89,0.00,,---,0.00,VWS V14.01,2013-07-29 16:11:00,
2013-07-29 10:16:00,64.9,54.1,24.13,NE,48,5.8,11.0,68,0.00,,---,0.00,VWS V14.01,2013-07-29 16:16:00,
2013-07-29 10:21:00,65.3,54.1,24.13,NNE,32,8.7,8.7,67,0.00,,---,0.00,VWS V14.01,2013-07-29 16:21:00,
2013-07-29 10:27:00,65.5,53.8,24.13,NNE,31,5.4,8.7,66,0.00,,---,0.00,VWS V14.01,2013-07-29 16:27:00,
2013-07-29 10:33:00,65.1,53.1,24.16,East,92,6.3,8.7,65,0.00,,---,0.00,VWS V14.01,2013-07-29 16:33:00,
2013-07-29 10:39:00,64.9,53.3,24.16,North,7,5.8,11.0,66,0.00,,---,0.00,VWS V14.01,2013-07-29 16:39:00,
2013-07-29 10:44:00,64.9,53.7,24.16,North,11,8.7,8.7,67,0.00,,---,0.00,VWS V14.01,2013-07-29 16:44:00,
2013-07-29 10:50:00,64.9,53.3,24.16,North,11,7.6,7.6,66,0.00,,---,0.00,VWS V14.01,2013-07-29 16:50:00,
2013-07-29 10:55:00,64.9,53.3,24.16,NE,36,8.7,8.7,66,0.00,,---,0.00,VWS V14.01,2013-07-29 16:55:00,
2013-07-29 11:00:00,64.9,53.7,24.16,NE,45,2.7,5.4,67,0.00,,---,0.00,VWS V14.01,2013-07-29 17:00:00,
2013-07-29 11:06:00,64.8,53.6,24.16,NNE,19,8.3,8.3,67,0.00,,---,0.00,VWS V14.01,2013-07-29 17:06:00,
2013-07-29 11:11:00,64.8,53.6,24.16,North,9,3.6,5.8,67,0.00,,---,0.00,VWS V14.01,2013-07-29 17:11:00,
2013-07-29 11:16:00,64.8,54.0,24.16,ENE,57,4.0,5.8,68,0.00,,---,0.00,VWS V14.01,2013-07-29 17:16:00,
2013-07-29 11:22:00,64.6,53.8,24.16,East,90,4.0,6.3,68,0.00,,---,0.00,VWS V14.01,2013-07-29 17:22:00,
2013-07-29 11:29:00,64.2,53.5,24.16,NE,43,4.0,8.3,68,0.00,,---,0.00,VWS V14.01,2013-07-29 17:29:00,
2013-07-29 11:34:00,64.0,53.3,24.16,North,2,3.1,5.8,68,0.00,,---,0.00,VWS V14.01,2013-07-29 17:34:00,
2013-07-29 11:39:00,63.9,53.5,24.16,NE,45,3.6,6.3,69,0.00,,---,0.00,VWS V14.01,2013-07-29 17:39:00,
2013-07-29 11:44:00,63.5,53.5,24.16,NE,48,3.6,5.4,70,0.00,,---,0.00,VWS V14.01,2013-07-29 17:44:00,
2013-07-29 11:51:00,63.1,53.6,24.16,NNE,30,0.0,2.2,71,0.00,,---,0.00,VWS V14.01,2013-07-29 17:51:00,
2013-07-29 11:56:00,63.0,53.8,24.16,ESE,119,3.1,3.1,72,0.00,,---,0.00,VWS V14.01,2013-07-29 17:56:00,
2013-07-29 12:01:00,62.8,54.0,24.16,East,92,2.2,4.0,73,0.00,,---,0.00,VWS V14.01,2013-07-29 18:01:00,
2013-07-29 12:06:00,62.4,54.0,24.16,East,92,0.0,0.0,74,0.00,,---,0.00,VWS V14.01,2013-07-29 18:06:00,
2013-07-29 12:11:00,62.4,54.4,24.16,East,92,0.0,0.0,75,0.04,,---,0.04,VWS V14.01,2013-07-29 18:11:00,
2013-07-29 12:17:00,61.7,53.3,24.19,SSE,163,3.1,3.6,74,0.04,,---,0.04,VWS V14.01,2013-07-29 18:17:00,
2013-07-29 12:22:00,60.8,51.7,24.19,SSW,203,0.0,0.0,72,0.04,,---,0.04,VWS V14.01,2013-07-29 18:22:00,
2013-07-29 12:28:00,59.7,50.7,24.19,SSE,162,4.9,4.9,72,0.08,,---,0.08,VWS V14.01,2013-07-29 18:28:00,
2013-07-29 12:34:00,59.2,49.8,24.19,ENE,64,0.0,0.0,71,0.12,,---,0.12,VWS V14.01,2013-07-29 18:34:00,
2013-07-29 12:39:00,59.0,50.7,24.19,WSW,252,0.0,2.7,74,0.16,,---,0.16,VWS V14.01,2013-07-29 18:39:00,
2013-07-29 12:45:00,58.8,51.6,24.19,West,271,0.0,0.0,77,0.16,,---,0.16,VWS V14.01,2013-07-29 18:45:00,
2013-07-29 12:50:00,58.8,52.0,24.19,South,190,2.7,3.6,78,0.16,,---,0.16,VWS V14.01,2013-07-29 18:50:00,
2013-07-29 12:55:00,58.5,52.0,24.19,South,190,0.0,0.0,79,0.16,,---,0.16,VWS V14.01,2013-07-29 18:55:00,
2013-07-29 13:01:00,58.6,52.8,24.19,South,190,0.0,0.0,81,0.16,,---,0.16,VWS V14.01,2013-07-29 19:01:00,
2013-07-29 13:06:00,59.0,53.2,24.19,South,190,0.0,0.0,81,0.16,,---,0.16,VWS V14.01,2013-07-29 19:06:00,
2013-07-29 13:11:00,59.4,53.5,24.19,South,190,0.0,0.0,81,0.12,,---,0.16,VWS V14.01,2013-07-29 19:11:00,
2013-07-29 13:16:00,59.7,54.2,24.21,South,190,0.0,0.0,82,0.12,,---,0.16,VWS V14.01,2013-07-29 19:16:00,
2013-07-29 13:22:00,59.9,54.4,24.21,South,190,0.0,0.0,82,0.12,,---,0.16,VWS V14.01,2013-07-29 19:22:00,
2013-07-29 13:28:00,60.3,55.1,24.21,South,190,0.0,0.0,83,0.08,,---,0.16,VWS V14.01,2013-07-29 19:28:00,
2013-07-29 13:34:00,60.6,55.4,24.21,South,190,0.0,0.0,83,0.04,,---,0.16,VWS V14.01,2013-07-29 19:34:00,
2013-07-29 13:40:00,61.0,55.8,24.21,South,190,0.0,0.0,83,0.00,,---,0.16,VWS V14.01,2013-07-29 19:40:00,
2013-07-29 13:45:00,61.0,55.8,24.21,North,4,0.0,0.0,83,0.00,,---,0.16,VWS V14.01,2013-07-29 19:45:00,
2013-07-29 13:50:00,61.2,56.0,24.21,NE,36,3.6,5.8,83,0.00,,---,0.16,VWS V14.01,2013-07-29 19:50:00,
2013-07-29 13:55:00,61.3,56.5,24.21,NNE,28,3.1,3.1,84,0.00,,---,0.16,VWS V14.01,2013-07-29 19:55:00,
2013-07-29 14:01:00,61.5,56.7,24.21,NE,41,0.0,0.0,84,0.00,,---,0.16,VWS V14.01,2013-07-29 20:01:00,
2013-07-29 14:08:00,61.7,56.8,24.21,NE,41,0.0,0.0,84,0.00,,---,0.16,VWS V14.01,2013-07-29 20:08:00,
2013-07-29 14:14:00,61.9,57.0,24.21,NE,41,0.0,0.0,84,0.00,,---,0.16,VWS V14.01,2013-07-29 20:14:00,
2013-07-29 14:19:00,62.2,57.3,24.21,NE,41,0.0,0.0,84,0.00,,---,0.16,VWS V14.01,2013-07-29 20:19:00,
2013-07-29 14:25:00,62.4,57.5,24.21,NE,41,0.0,0.0,84,0.00,,---,0.16,VWS V14.01,2013-07-29 20:25:00,
2013-07-29 14:31:00,62.6,57.7,24.21,NE,41,0.0,0.0,84,0.00,,---,0.16,VWS V14.01,2013-07-29 20:31:00,
2013-07-29 14:37:00,63.0,57.7,24.21,NE,41,0.0,0.0,83,0.00,,---,0.16,VWS V14.01,2013-07-29 20:37:00,
2013-07-29 14:42:00,63.1,58.2,24.21,NE,41,0.0,0.0,84,0.00,,---,0.16,VWS V14.01,2013-07-29 20:42:00,
2013-07-29 14:48:00,63.9,59.3,24.24,NE,41,0.0,0.0,85,0.00,,---,0.16,VWS V14.01,2013-07-29 20:48:00,
2013-07-29 14:54:00,64.2,59.6,24.24,NE,40,4.9,4.9,85,0.00,,---,0.16,VWS V14.01,2013-07-29 20:54:00,
2013-07-29 14:59:00,64.2,59.3,24.24,NNE,24,3.1,3.6,84,0.00,,---,0.16,VWS V14.01,2013-07-29 20:59:00,
2013-07-29 15:07:00,64.6,55.4,24.24,ENE,65,3.1,3.6,72,0.00,,---,0.16,VWS V14.01,2013-07-29 21:07:00,
2013-07-29 15:13:00,64.4,53.2,24.24,North,3,0.0,0.0,67,0.00,,---,0.16,VWS V14.01,2013-07-29 21:13:00,
2013-07-29 15:18:00,65.1,54.7,24.24,NNE,21,0.0,0.0,69,0.00,,---,0.16,VWS V14.01,2013-07-29 21:18:00,
2013-07-29 15:24:00,64.2,53.8,24.24,NNE,21,0.0,0.0,69,0.00,,---,0.16,VWS V14.01,2013-07-29 21:24:00,
2013-07-29 15:29:00,63.5,53.5,24.24,NNE,21,0.0,0.0,70,0.00,,---,0.16,VWS V14.01,2013-07-29 21:29:00,
2013-07-29 15:35:00,63.1,53.6,24.24,NNE,21,0.0,0.0,71,0.00,,---,0.16,VWS V14.01,2013-07-29 21:35:00,
2013-07-29 15:41:00,62.4,53.3,24.24,NNE,21,0.0,0.0,72,0.00,,---,0.16,VWS V14.01,2013-07-29 21:41:00,
2013-07-29 15:46:00,62.2,53.5,24.27,NNE,21,0.0,0.0,73,0.00,,---,0.16,VWS V14.01,2013-07-29 21:46:00,
2013-07-29 15:52:00,62.2,54.2,24.27,NW,310,0.0,2.2,75,0.00,,---,0.16,VWS V14.01,2013-07-29 21:52:00,
2013-07-29 15:59:00,61.7,53.7,24.27,South,189,3.1,3.6,75,0.04,,---,0.20,VWS V14.01,2013-07-29 21:59:00,
2013-07-29 16:04:00,61.7,53.7,24.27,South,190,0.0,0.0,75,0.04,,---,0.20,VWS V14.01,2013-07-29 22:04:00,
2013-07-29 16:09:00,61.9,53.9,24.27,SSW,201,0.0,4.0,75,0.04,,---,0.20,VWS V14.01,2013-07-29 22:09:00,
2013-07-29 16:14:00,61.7,52.6,24.24,WSW,256,0.0,3.6,72,0.04,,---,0.20,VWS V14.01,2013-07-29 22:14:00,
2013-07-29 16:20:00,61.9,52.4,24.24,West,280,0.0,0.0,71,0.04,,---,0.20,VWS V14.01,2013-07-29 22:20:00,
2013-07-29 16:25:00,62.2,52.7,24.24,West,280,0.0,0.0,71,0.04,,---,0.20,VWS V14.01,2013-07-29 22:25:00,
2013-07-29 16:31:00,62.4,53.3,24.24,West,280,0.0,0.0,72,0.04,,---,0.20,VWS V14.01,2013-07-29 22:31:00,
2013-07-29 16:37:00,62.6,53.5,24.24,West,280,0.0,0.0,72,0.04,,---,0.20,VWS V14.01,2013-07-29 22:37:00,
2013-07-29 16:42:00,62.8,53.6,24.24,West,280,0.0,0.0,72,0.04,,---,0.20,VWS V14.01,2013-07-29 22:42:00,
2013-07-29 16:49:00,62.2,53.1,24.24,SSE,158,2.7,3.1,72,0.04,,---,0.20,VWS V14.01,2013-07-29 22:49:00,
2013-07-29 16:54:00,62.2,52.7,24.24,SSE,161,0.0,0.0,71,0.04,,---,0.20,VWS V14.01,2013-07-29 22:54:00,
2013-07-29 16:59:00,62.2,52.7,24.24,SSE,161,0.0,0.0,71,0.00,,---,0.20,VWS V14.01,2013-07-29 22:59:00,
2013-07-29 17:05:00,62.4,53.3,24.24,SW,220,0.0,0.0,72,0.00,,---,0.20,VWS V14.01,2013-07-29 23:05:00,
2013-07-29 17:11:00,62.8,53.6,24.24,SW,220,0.0,0.0,72,0.00,,---,0.20,VWS V14.01,2013-07-29 23:11:00,
2013-07-29 17:17:00,62.6,53.8,24.24,SW,220,0.0,0.0,73,0.00,,---,0.20,VWS V14.01,2013-07-29 23:17:00,
2013-07-29 17:22:00,62.8,54.4,24.24,SW,220,0.0,0.0,74,0.00,,---,0.20,VWS V14.01,2013-07-29 23:22:00,
2013-07-29 17:28:00,63.0,54.9,24.21,SW,220,0.0,0.0,75,0.00,,---,0.20,VWS V14.01,2013-07-29 23:28:00,
2013-07-29 17:35:00,63.0,55.3,24.21,SW,220,0.0,0.0,76,0.00,,---,0.20,VWS V14.01,2013-07-29 23:35:00,
2013-07-29 17:41:00,63.0,55.7,24.21,SW,220,0.0,0.0,77,0.00,,---,0.20,VWS V14.01,2013-07-29 23:41:00,
2013-07-29 17:47:00,63.0,56.0,24.21,SW,220,0.0,0.0,78,0.00,,---,0.20,VWS V14.01,2013-07-29 23:47:00,
2013-07-29 17:53:00,63.1,56.5,24.21,SW,220,0.0,0.0,79,0.00,,---,0.20,VWS V14.01,2013-07-29 23:53:00,
2013-07-29 17:59:00,63.1,56.5,24.24,SW,220,0.0,0.0,79,0.00,,---,0.20,VWS V14.01,2013-07-29 23:59:00,
2013-07-29 18:05:00,63.5,57.2,24.24,SW,220,0.0,0.0,80,0.00,,---,0.20,VWS V14.01,2013-07-30 00:05:00,
2013-07-29 18:12:00,63.5,57.2,24.24,SW,220,0.0,0.0,80,0.00,,---,0.20,VWS V14.01,2013-07-30 00:12:00,
2013-07-29 18:18:00,63.7,57.8,24.21,SW,220,0.0,0.0,81,0.00,,---,0.20,VWS V14.01,2013-07-30 00:18:00,
2013-07-29 18:23:00,63.5,57.6,24.21,SW,220,0.0,0.0,81,0.00,,---,0.20,VWS V14.01,2013-07-30 00:23:00,
2013-07-29 18:29:00,63.9,57.9,24.21,SW,220,0.0,0.0,81,0.00,,---,0.20,VWS V14.01,2013-07-30 00:29:00,
2013-07-29 18:34:00,64.6,59.0,24.21,SW,220,0.0,0.0,82,0.00,,---,0.20,VWS V14.01,2013-07-30 00:34:00,
2013-07-29 18:39:00,64.2,58.6,24.21,SW,220,0.0,0.0,82,0.00,,---,0.20,VWS V14.01,2013-07-30 00:39:00,
2013-07-29 18:45:00,63.5,56.9,24.21,SW,220,0.0,0.0,79,0.00,,---,0.20,VWS V14.01,2013-07-30 00:45:00,
2013-07-29 18:50:00,63.0,56.0,24.21,SW,220,0.0,0.0,78,0.00,,---,0.20,VWS V14.01,2013-07-30 00:50:00,
2013-07-29 18:55:00,62.8,56.2,24.21,SW,220,0.0,0.0,79,0.00,,---,0.20,VWS V14.01,2013-07-30 00:55:00,
2013-07-29 19:01:00,62.2,56.0,24.21,SW,220,0.0,0.0,80,0.00,,---,0.20,VWS V14.01,2013-07-30 01:01:00,
2013-07-29 19:06:00,62.1,55.8,24.21,SW,220,0.0,0.0,80,0.00,,---,0.20,VWS V14.01,2013-07-30 01:06:00,
2013-07-29 19:13:00,61.7,55.8,24.21,SW,220,0.0,0.0,81,0.00,,---,0.20,VWS V14.01,2013-07-30 01:13:00,
2013-07-29 19:18:00,61.3,55.8,24.21,SW,220,0.0,0.0,82,0.00,,---,0.20,VWS V14.01,2013-07-30 01:18:00,
2013-07-29 19:24:00,61.0,55.5,24.21,SW,220,0.0,0.0,82,0.00,,---,0.20,VWS V14.01,2013-07-30 01:24:00,
2013-07-29 19:30:00,60.6,55.4,24.21,SW,220,0.0,0.0,83,0.00,,---,0.20,VWS V14.01,2013-07-30 01:30:00,
2013-07-29 19:36:00,60.4,55.3,24.21,SW,220,0.0,0.0,83,0.00,,---,0.20,VWS V14.01,2013-07-30 01:36:00,
2013-07-29 19:41:00,60.3,55.1,24.21,SW,220,0.0,0.0,83,0.00,,---,0.20,VWS V14.01,2013-07-30 01:41:00,
2013-07-29 19:47:00,59.9,55.1,24.21,SW,220,0.0,0.0,84,0.00,,---,0.20,VWS V14.01,2013-07-30 01:47:00,
2013-07-29 19:52:00,59.7,54.9,24.21,SW,220,0.0,0.0,84,0.00,,---,0.20,VWS V14.01,2013-07-30 01:52:00,
2013-07-29 19:58:00,59.4,54.5,24.21,SW,220,0.0,0.0,84,0.00,,---,0.20,VWS V14.01,2013-07-30 01:58:00,
2013-07-29 20:04:00,59.0,54.2,24.21,SW,220,0.0,0.0,84,0.00,,---,0.20,VWS V14.01,2013-07-30 02:04:00,
2013-07-29 20:11:00,58.6,53.8,24.21,SW,220,0.0,0.0,84,0.00,,---,0.20,VWS V14.01,2013-07-30 02:11:00,
2013-07-29 20:16:00,58.5,53.7,24.24,SW,220,0.0,0.0,84,0.00,,---,0.20,VWS V14.01,2013-07-30 02:16:00,
2013-07-29 20:21:00,58.3,53.5,24.24,SW,220,0.0,0.0,84,0.00,,---,0.20,VWS V14.01,2013-07-30 02:21:00,
2013-07-29 20:27:00,58.1,53.6,24.24,SW,220,0.0,0.0,85,0.00,,---,0.20,VWS V14.01,2013-07-30 02:27:00,
2013-07-29 20:33:00,57.9,53.4,24.24,SW,220,0.0,0.0,85,0.00,,---,0.20,VWS V14.01,2013-07-30 02:33:00,
2013-07-29 20:39:00,57.7,53.3,24.24,South,191,0.0,0.0,85,0.00,,---,0.20,VWS V14.01,2013-07-30 02:39:00,
2013-07-29 20:45:00,57.6,53.4,24.24,SW,220,0.0,0.0,86,0.00,,---,0.20,VWS V14.01,2013-07-30 02:45:00,
2013-07-29 20:50:00,57.4,52.9,24.24,SW,220,0.0,0.0,85,0.00,,---,0.20,VWS V14.01,2013-07-30 02:50:00,
2013-07-29 20:56:00,57.2,52.7,24.24,SW,220,0.0,0.0,85,0.00,,---,0.20,VWS V14.01,2013-07-30 02:56:00,
2013-07-29 21:02:00,56.8,52.7,24.24,SW,220,0.0,0.0,86,0.00,,---,0.20,VWS V14.01,2013-07-30 03:02:00,
2013-07-29 21:08:00,56.7,52.5,24.24,SW,220,0.0,0.0,86,0.00,,---,0.20,VWS V14.01,2013-07-30 03:08:00,
2013-07-29 21:16:00,56.7,52.5,24.27,SW,220,0.0,0.0,86,0.00,,---,0.20,VWS V14.01,2013-07-30 03:16:00,
2013-07-29 21:22:00,56.5,52.3,24.27,SW,220,0.0,0.0,86,0.00,,---,0.20,VWS V14.01,2013-07-30 03:22:00,
2013-07-29 21:28:00,56.3,52.2,24.27,SW,220,0.0,0.0,86,0.00,,---,0.20,VWS V14.01,2013-07-30 03:28:00,
2013-07-29 21:34:00,56.1,52.0,24.27,SW,220,0.0,0.0,86,0.00,,---,0.20,VWS V14.01,2013-07-30 03:34:00,
2013-07-29 21:42:00,55.9,52.1,24.27,SW,220,0.0,0.0,87,0.00,,---,0.20,VWS V14.01,2013-07-30 03:42:00,
2013-07-29 21:48:00,55.9,52.1,24.27,SW,220,0.0,0.0,87,0.00,,---,0.20,VWS V14.01,2013-07-30 03:48:00,
2013-07-29 21:54:00,55.6,51.8,24.27,SSW,200,0.0,0.0,87,0.00,,---,0.20,VWS V14.01,2013-07-30 03:54:00,
2013-07-29 22:01:00,55.4,51.6,24.27,SSW,200,0.0,0.0,87,0.00,,---,0.20,VWS V14.01,2013-07-30 04:01:00,
2013-07-29 22:02:00,55.2,51.4,24.27,SSW,200,0.0,0.0,87,0.00,,---,0.20,VWS V14.01,2013-07-30 04:02:00,
2013-07-29 22:03:00,55.2,51.4,24.27,SSW,200,0.0,0.0,87,0.00,,---,0.20,VWS V14.01,2013-07-30 04:03:00,
2013-07-29 22:04:00,55.2,51.4,24.27,SSW,200,0.0,0.0,87,0.00,,---,0.20,VWS V14.01,2013-07-30 04:04:00,
2013-07-29 22:05:00,55.2,51.4,24.27,SSW,200,0.0,0.0,87,0.00,,---,0.20,VWS V14.01,2013-07-30 04:05:00,
2013-07-29 22:10:00,55.2,51.7,24.27,SSW,200,0.0,0.0,88,0.00,,---,0.20,VWS V14.01,2013-07-30 04:10:00,
2013-07-29 22:16:00,55.2,51.7,24.27,SSW,200,0.0,0.0,88,0.00,,---,0.20,VWS V14.01,2013-07-30 04:16:00,
2013-07-29 22:22:00,55.2,51.7,24.27,South,179,0.0,0.0,88,0.00,,---,0.20,VWS V14.01,2013-07-30 04:22:00,
2013-07-29 22:28:00,55.0,51.6,24.27,WSW,246,0.0,0.0,88,0.00,,---,0.20,VWS V14.01,2013-07-30 04:28:00,
2013-07-29 22:33:00,54.7,51.2,24.27,WSW,246,0.0,0.0,88,0.00,,---,0.20,VWS V14.01,2013-07-30 04:33:00,
2013-07-29 22:39:00,54.5,51.0,24.27,WSW,246,0.0,0.0,88,0.00,,---,0.20,VWS V14.01,2013-07-30 04:39:00,
2013-07-29 22:44:00,54.3,50.8,24.27,WSW,246,0.0,0.0,88,0.00,,---,0.20,VWS V14.01,2013-07-30 04:44:00,
2013-07-29 22:50:00,54.1,50.7,24.27,WSW,246,0.0,0.0,88,0.00,,---,0.20,VWS V14.01,2013-07-30 04:50:00,
2013-07-29 22:56:00,54.1,50.7,24.27,WSW,246,0.0,0.0,88,0.00,,---,0.20,VWS V14.01,2013-07-30 04:56:00,
2013-07-29 23:01:00,54.1,50.7,24.27,WSW,246,0.0,0.0,88,0.00,,---,0.20,VWS V14.01,2013-07-30 05:01:00,
2013-07-29 23:06:00,54.1,50.7,24.27,WSW,246,0.0,0.0,88,0.00,,---,0.20,VWS V14.01,2013-07-30 05:06:00,
2013-07-29 23:12:00,54.5,51.3,24.27,WSW,246,0.0,0.0,89,0.00,,---,0.20,VWS V14.01,2013-07-30 05:12:00,
2013-07-29 23:18:00,54.5,51.3,24.27,WSW,246,0.0,0.0,89,0.00,,---,0.20,VWS V14.01,2013-07-30 05:18:00,
2013-07-29 23:23:00,54.5,51.3,24.27,WSW,246,0.0,0.0,89,0.00,,---,0.20,VWS V14.01,2013-07-30 05:23:00,
2013-07-29 23:29:00,54.5,51.3,24.30,WSW,246,0.0,0.0,89,0.00,,---,0.20,VWS V14.01,2013-07-30 05:29:00,
2013-07-29 23:34:00,54.7,51.5,24.30,WSW,246,0.0,0.0,89,0.00,,---,0.20,VWS V14.01,2013-07-30 05:34:00,
2013-07-29 23:39:00,54.9,51.7,24.30,WSW,246,0.0,0.0,89,0.00,,---,0.20,VWS V14.01,2013-07-30 05:39:00,
2013-07-29 23:45:00,54.9,51.7,24.30,WSW,246,0.0,0.0,89,0.00,,---,0.20,VWS V14.01,2013-07-30 05:45:00,
2013-07-29 23:50:00,54.9,51.7,24.30,WSW,246,0.0,0.0,89,0.00,,---,0.20,VWS V14.01,2013-07-30 05:50:00,
2013-07-29 23:56:00,54.9,51.7,24.30,WSW,246,0.0,0.0,89,0.00,,---,0.20,VWS V14.01,2013-07-30 05:56:00,